Tracking 30744 objects as of 23-Jun-2025
HD Live streaming from Space Station
objects crossing your sky now

FENGYUN 1C DEB

Track FENGYUN 1C DEB now!
10-day predictions


NORAD ID: 32332
Int'l Code: 1999-025CXZ
Perigee: 702.5 km
Apogee: 1,126.2 km
Inclination: 99.1 °
Period: 103.1 minutes
Semi major axis: 7285 km
RCS: 0.0123 m2 (small)
Launch date: May 10, 1999
Source: People's Republic of China (PRC)
Launch site: Taiyaun Space Center, China (TSC)

Note: This is SATELLITE DEBRIS
Your satellite tracking list
Your tracking list is empty




NASA's NSSDC Master Catalog

Two Line Element Set (TLE):
1 32332U 99025CXZ 25170.41262294  .00002256  00000-0  11725-2 0  9996
2 32332  99.1430 225.3856 0290787  76.5013 286.8371 13.96133240905750
Source of the keplerian elements: AFSPC